Preview of NWS' New Version of Forecast
This preview is not operational and should not be used for support decisions.

Regional Weather Roundup (RWR)

Issued by National Weather Service (NWS)

                            
000
ASUS43 KLSX 250307
RWRMO 

WEATHER SUMMARY FOR MISSOURI
NATIONAL WEATHER SERVICE SPRINGFIELD MO
1000 PM CDT MON JUN 24 2019

NOTE: "FAIR" INDICATES FEW OR NO CLOUDS BELOW 12,000 FEET WITH NO
       SIGNIFICANT WEATHER AND/OR OBSTRUCTIONS TO VISIBILITY.
       CURRENT SKY AND/OR WEATHER CONDITIONS ARE NOT AVAILABLE FOR
       CHILLICOTHE AND FARMINGTON.

MOZ001>031-035>038-043-044-053-054-250400-
...NORTHERN AND WESTERN MISSOURI...
  
CITY           SKY/WX    TMP DP  RH WIND       PRES   REMARKS
KANSAS CTY INT PTCLDY    66  60  81 S6        29.86R                  
KANSAS C DTWN  CLEAR     72  57  59 SW7       29.85R                  
LEE'S SUMMIT   CLEAR     65  58  78 S8        29.88R                  
ST JOSEPH      CLEAR     69  62  78 S5        29.84R                  
CHILLICOTHE      N/A     67  63  87 CALM      29.86R                  
KIRKSVILLE     CLEAR     68  59  73 SW6       29.85R                  
     
$$
MOZ066>068-077>081-088>096-101>105-250400-
...SOUTHWEST MISSOURI...
  
CITY           SKY/WX    TMP DP  RH WIND       PRES   REMARKS
SPRINGFIELD    CLEAR     65  58  78 SW6       29.92R                  
JOPLIN         CLEAR     69  60  73 SE3       29.91S                  
BRANSON        CLEAR     64  57  77 CALM      29.96R                  
               
$$
MOZ032>034-039>042-045>050-055>058-069>072-250400-
...CENTRAL MISSOURI...  
  
CITY           SKY/WX    TMP DP  RH WIND       PRES   REMARKS
COLUMBIA       CLEAR     67  59  75 SW7       29.89R                  
ROLLA          CLEAR     64  57  78 SW6       29.92R                  
SEDALIA        CLEAR     65  60  84 SW7       29.90R                  
WHITEMAN AFB   CLEAR     66  62  86 S7        29.85R                  
WARRENSBURG    CLEAR     68  59  73 S5        29.88R                  
OSAGE BEACH    CLEAR     64  62  93 CALM      29.92R                  
               
$$
MOZ051-052-059>065-250400-
...EAST CENTRAL MISSOURI...
  
CITY           SKY/WX    TMP DP  RH WIND       PRES   REMARKS
ST LOUIS INTL  CLEAR     72  58  61 W7        29.87R                  
SPIRIT OF STL  CLEAR     68  64  87 CALM      29.86R                  
ST CHARLES       N/A    N/A N/A N/A MISG      29.85R                  
                   
$$
MOZ072>076-082>087-097>100-106>115-250400-
...SOUTH CENTRAL AND SOUTHEAST MISSOURI...
  
CITY           SKY/WX    TMP DP  RH WIND       PRES   REMARKS
CAPE GIRARDEAU FAIR      74  67  78 VRB6      29.88R                  
FARMINGTON     CLEAR     68  61  78 CALM      29.91R                  
POPLAR BLUFF   FAIR      74  69  85 SW5       29.89R                  
WEST PLAINS    CLEAR     66  60  81 W3        29.94R                  
                                       
$$